,,Stat6,,Stat2,,Stat8,,Stat9,,Stat10,,Wind1,,Wind1,
time,status,PA1M_AVG,status,PR1M_SUM,status,RH1M_AVG,status,SR1M_AVG,status,TA1M_AVG,status,W1dAve1m,status,W1sAve1m,
2004-08-18, 00:00:00,VALID,919.871,VALID,0,VALID,97.836,VALID,0,VALID,20.1182,VALID,360,VALID,0.237909,
2004-08-18, 00:01:00,VALID,919.867,VALID,0,VALID,97.9123,VALID,0.0169808,VALID,20.1123,VALID,360,VALID,0.249428,
2004-08-18, 00:02:00,VALID,919.872,VALID,0,VALID,97.9911,VALID,0.0169808,VALID,20.0832,VALID,360,VALID,0.105097,
2004-08-18, 00:03:00,VALID,919.862,VALID,0,VALID,98.0979,VALID,0.0169808,VALID,20.0738,VALID,360,VALID,0,
2004-08-18, 00:04:00,VALID,919.857,VALID,0,VALID,98.2442,VALID,0,VALID,20.0835,VALID,360,VALID,0,
2004-08-18, 00:05:00,VALID,919.846,VALID,0,VALID,98.3764,VALID,0.0169808,VALID,20.1026,VALID,360,VALID,0,
2004-08-18, 00:06:00,VALID,919.85,VALID,0,VALID,98.4769,VALID,0,VALID,20.1257,VALID,360,VALID,0,
2004-08-18, 00:07:00,VALID,919.854,VALID,0,VALID,98.4896,VALID,0,VALID,20.1384,VALID,360,VALID,0,
2004-08-18, 00:08:00,VALID,919.87,VALID,0,VALID,98.2582,VALID,0.0339617,VALID,20.1252,VALID,360,VALID,0,
2004-08-18, 00:09:00,VALID,919.895,VALID,0,VALID,98.1997,VALID,0,VALID,20.1225,VALID,360,VALID,0,
2004-08-18, 00:10:00,VALID,919.917,VALID,0,VALID,98.2162,VALID,0.0339617,VALID,20.0989,VALID,360,VALID,0,
2004-08-18, 00:11:00,VALID,919.929,VALID,0,VALID,98.3192,VALID,0.0509425,VALID,20.1026,VALID,360,VALID,0.219618,
2004-08-18, 00:12:00,VALID,919.923,VALID,0,VALID,98.4413,VALID,0.0339617,VALID,20.1128,VALID,357,VALID,0.394717,
2004-08-18, 00:13:00,VALID,919.902,VALID,0,VALID,98.5888,VALID,0,VALID,20.1123,VALID,357,VALID,0.325817,
2004-08-18, 00:14:00,VALID,919.897,VALID,0,VALID,98.7261,VALID,0.0169808,VALID,20.1322,VALID,355,VALID,0.337081,
2004-08-18, 00:15:00,VALID,919.893,VALID,0,VALID,98.7846,VALID,0,VALID,20.1289,VALID,353,VALID,0.294744,
2004-08-18, 00:16:00,VALID,919.901,VALID,0,VALID,98.8316,VALID,0,VALID,20.1518,VALID,353,VALID,0.0552591,
2004-08-18, 00:17:00,VALID,919.922,VALID,0,VALID,98.8342,VALID,0,VALID,20.1612,VALID,353,VALID,0,
2004-08-18, 00:18:00,VALID,919.94,VALID,0,VALID,98.8291,VALID,0,VALID,20.158,VALID,353,VALID,0,
2004-08-18, 00:19:00,VALID,919.958,VALID,0,VALID,98.6943,VALID,0,VALID,20.1776,VALID,353,VALID,0,
2004-08-18, 00:20:00,VALID,919.968,VALID,0,VALID,98.3929,VALID,0.0339617,VALID,20.1317,VALID,353,VALID,0,
2004-08-18, 00:21:00,VALID,919.959,VALID,0,VALID,98.1068,VALID,0,VALID,20.0999,VALID,353,VALID,0,
2004-08-18, 00:22:00,VALID,919.96,VALID,0,VALID,97.9314,VALID,0.0509425,VALID,20.0636,VALID,353,VALID,0,
2004-08-18, 00:23:00,VALID,919.948,VALID,0,VALID,97.9695,VALID,0.0169808,VALID,20.0678,VALID,353,VALID,0,
2004-08-18, 00:24:00,VALID,919.925,VALID,0,VALID,98.0636,VALID,-0.0509425,VALID,20.0944,VALID,353,VALID,0,
2004-08-18, 00:25:00,VALID,919.918,VALID,0,VALID,98.1501,VALID,-0.101885,VALID,20.1175,VALID,353,VALID,0,
2004-08-18, 00:26:00,VALID,919.895,VALID,0,VALID,98.3497,VALID,-0.101885,VALID,20.1628,VALID,353,VALID,0.0267857,
2004-08-18, 00:27:00,VALID,919.896,VALID,0,VALID,98.468,VALID,-0.0679233,VALID,20.1846,VALID,353,VALID,0.118641,
2004-08-18, 00:28:00,VALID,919.891,VALID,0,VALID,98.4705,VALID,-0.0509425,VALID,20.2139,VALID,353,VALID,0,
2004-08-18, 00:29:00,VALID,919.877,VALID,0,VALID,98.5188,VALID,-0.0849042,VALID,20.2169,VALID,353,VALID,0.0304878,
2004-08-18, 00:30:00,VALID,919.873,VALID,0,VALID,98.5061,VALID,-0.101885,VALID,20.2462,VALID,353,VALID,0.0450581,
2004-08-18, 00:31:00,VALID,919.867,VALID,0,VALID,98.5176,VALID,-0.0679233,VALID,20.2462,VALID,326,VALID,0.406428,
2004-08-18, 00:32:00,VALID,919.858,VALID,0,VALID,98.5722,VALID,-0.0849042,VALID,20.2529,VALID,239,VALID,0.31955,
2004-08-18, 00:33:00,VALID,919.854,VALID,0,VALID,98.6727,VALID,-0.0849042,VALID,20.2524,VALID,239,VALID,0.207919,
2004-08-18, 00:34:01,VALID,919.841,VALID,0,VALID,98.6396,VALID,-0.0509425,VALID,20.2658,VALID,282,VALID,0.30214,
2004-08-18, 00:35:00,VALID,919.851,VALID,0,VALID,98.4273,VALID,-0.0849042,VALID,20.2527,VALID,341,VALID,0.486607,
2004-08-18, 00:36:00,VALID,919.845,VALID,0,VALID,98.1768,VALID,-0.0679233,VALID,20.2169,VALID,343,VALID,0.497954,
2004-08-18, 00:37:00,VALID,919.831,VALID,0,VALID,98.1564,VALID,-0.101885,VALID,20.201,VALID,343,VALID,0.487216,
2004-08-18, 00:38:00,VALID,919.81,VALID,0,VALID,98.089,VALID,-0.101885,VALID,20.1814,VALID,343,VALID,0.325521,
2004-08-18, 00:39:00,VALID,919.794,VALID,0,VALID,98.1488,VALID,-0.0849042,VALID,20.1719,VALID,343,VALID,0.37064,
2004-08-18, 00:40:00,VALID,919.778,VALID,0,VALID,98.1755,VALID,-0.0849042,VALID,20.1781,VALID,343,VALID,0.428354,
2004-08-18, 00:41:00,VALID,919.747,VALID,0,VALID,98.1704,VALID,-0.0339617,VALID,20.1722,VALID,343,VALID,0.240734,
2004-08-18, 00:42:00,VALID,919.733,VALID,0,VALID,98.2073,VALID,-0.101885,VALID,20.1526,VALID,343,VALID,0.0543241,
2004-08-18, 00:43:00,VALID,919.694,VALID,0,VALID,98.3573,VALID,-0.101885,VALID,20.156,VALID,343,VALID,0.00111607,
2004-08-18, 00:44:01,VALID,919.668,VALID,0,VALID,98.454,VALID,-0.0679233,VALID,20.1655,VALID,343,VALID,0,
2004-08-18, 00:45:00,VALID,919.64,VALID,0,VALID,98.5087,VALID,-0.0679233,VALID,20.1843,VALID,342,VALID,0.076029,
2004-08-18, 00:46:01,VALID,919.623,VALID,0,VALID,98.5811,VALID,-0.0339617,VALID,20.2013,VALID,342,VALID,0.0786701,
2004-08-18, 00:47:00,VALID,919.593,VALID,0,VALID,98.6015,VALID,-0.0849042,VALID,20.2107,VALID,342,VALID,0.124199,
2004-08-18, 00:48:00,VALID,919.582,VALID,0,VALID,98.5468,VALID,-0.0679233,VALID,20.1975,VALID,342,VALID,0.165587,
2004-08-18, 00:49:00,VALID,919.547,VALID,0,VALID,98.6091,VALID,-0.0849042,VALID,20.1948,VALID,342,VALID,0.0142663,
2004-08-18, 00:50:01,VALID,919.507,VALID,0,VALID,98.6663,VALID,-0.0849042,VALID,20.1878,VALID,342,VALID,0.00483631,
2004-08-18, 00:51:00,VALID,919.464,VALID,0,VALID,98.6663,VALID,-0.101885,VALID,20.2082,VALID,342,VALID,0.123884,
2004-08-18, 00:52:01,VALID,919.428,VALID,0,VALID,98.6155,VALID,-0.101885,VALID,20.1943,VALID,342,VALID,0.134909,
2004-08-18, 00:53:00,VALID,919.396,VALID,0,VALID,98.5646,VALID,-0.0849042,VALID,20.1747,VALID,342,VALID,0.00763081,
2004-08-18, 00:54:00,VALID,919.352,VALID,0,VALID,98.5468,VALID,0,VALID,20.1739,VALID,342,VALID,0.0230655,
2004-08-18, 00:55:00,VALID,919.308,VALID,0,VALID,98.5875,VALID,0.0169808,VALID,20.1704,VALID,342,VALID,0.103365,
2004-08-18, 00:56:01,VALID,919.275,VALID,0,VALID,98.6028,VALID,0,VALID,20.1704,VALID,342,VALID,0.0136265,
2004-08-18, 00:57:00,VALID,919.275,VALID,0,VALID,98.6435,VALID,0,VALID,20.1674,VALID,342,VALID,0,
2004-08-18, 00:58:01,VALID,919.262,VALID,0,VALID,98.6028,VALID,0,VALID,20.1674,VALID,342,VALID,0.240473,
2004-08-18, 00:59:01,VALID,919.252,VALID,0,VALID,98.3993,VALID,0,VALID,20.1344,VALID,342,VALID,0.372093,
2004-08-18, 01:00:00,VALID,919.244,VALID,0,VALID,98.4781,VALID,0.0169808,VALID,20.1289,VALID,342,VALID,0.418945,
2004-08-18, 01:01:01,VALID,919.247,VALID,0,VALID,98.3726,VALID,0,VALID,20.122,VALID,342,VALID,0.199653,
2004-08-18, 01:02:01,VALID,919.241,VALID,0,VALID,98.2632,VALID,0.0509425,VALID,20.0795,VALID,342,VALID,0.0114462,
2004-08-18, 01:03:00,VALID,919.241,VALID,0,VALID,98.3802,VALID,0.0169808,VALID,20.0735,VALID,342,VALID,0,
2004-08-18, 01:04:01,VALID,919.252,VALID,0,VALID,98.5112,VALID,0.0169808,VALID,20.077,VALID,342,VALID,0,
2004-08-18, 01:05:00,VALID,919.243,VALID,0,VALID,98.5964,VALID,0.0169808,VALID,20.0924,VALID,342,VALID,0,
2004-08-18, 01:06:00,VALID,919.254,VALID,0,VALID,98.6638,VALID,0.0169808,VALID,20.1058,VALID,342,VALID,0.280488,
2004-08-18, 01:07:00,VALID,919.253,VALID,0,VALID,98.6702,VALID,0,VALID,20.1257,VALID,343,VALID,0.425959,
2004-08-18, 01:08:01,VALID,919.231,VALID,0,VALID,98.6435,VALID,0.0509425,VALID,20.1257,VALID,344,VALID,0,
2004-08-18, 01:09:01,VALID,919.231,VALID,0,VALID,98.6371,VALID,0.0339617,VALID,20.1182,VALID,344,VALID,0,
2004-08-18, 01:10:01,VALID,919.215,VALID,0,VALID,98.6524,VALID,0,VALID,20.1284,VALID,344,VALID,0.00329861,
2004-08-18, 01:11:00,VALID,919.208,VALID,0,VALID,98.6905,VALID,0.0169808,VALID,20.1287,VALID,344,VALID,0.0141369,
2004-08-18, 01:12:00,VALID,919.186,VALID,0,VALID,98.6676,VALID,0.0339617,VALID,20.1446,VALID,344,VALID,0,
2004-08-18, 01:13:01,VALID,919.177,VALID,0,VALID,98.6244,VALID,0,VALID,20.1443,VALID,344,VALID,0,
2004-08-18, 01:14:01,VALID,919.175,VALID,0,VALID,98.6358,VALID,0.0339617,VALID,20.151,VALID,344,VALID,0,
2004-08-18, 01:15:00,VALID,919.176,VALID,0,VALID,98.6549,VALID,0,VALID,20.1408,VALID,344,VALID,0,
2004-08-18, 01:16:01,VALID,919.159,VALID,0,VALID,98.7045,VALID,0.0169808,VALID,20.1413,VALID,344,VALID,0,
2004-08-18, 01:17:00,VALID,919.152,VALID,0,VALID,98.7528,VALID,0.0169808,VALID,20.1346,VALID,344,VALID,0.147743,
2004-08-18, 01:18:00,VALID,919.133,VALID,0,VALID,98.6702,VALID,0.0169808,VALID,20.1379,VALID,344,VALID,0.228125,
2004-08-18, 01:19:00,VALID,919.123,VALID,0,VALID,98.4553,VALID,0.0169808,VALID,20.1088,VALID,344,VALID,0.0317951,
2004-08-18, 01:20:00,VALID,919.109,VALID,0,VALID,98.4718,VALID,0.0339617,VALID,20.1058,VALID,344,VALID,0,
2004-08-18, 01:21:01,VALID,919.128,VALID,0,VALID,98.5417,VALID,0,VALID,20.1222,VALID,344,VALID,0.130469,
2004-08-18, 01:22:01,VALID,919.143,VALID,0,VALID,98.5989,VALID,0,VALID,20.1351,VALID,344,VALID,0.0898438,
2004-08-18, 01:23:00,VALID,919.164,VALID,0,VALID,98.5951,VALID,0.0339617,VALID,20.1413,VALID,344,VALID,0.00190549,
2004-08-18, 01:24:01,VALID,919.18,VALID,0,VALID,98.6091,VALID,-0.0849042,VALID,20.1391,VALID,344,VALID,0,
2004-08-18, 01:25:00,VALID,919.2,VALID,0,VALID,98.6244,VALID,-0.0849042,VALID,20.1426,VALID,345,VALID,0.157848,
2004-08-18, 01:26:00,VALID,919.201,VALID,0,VALID,98.5684,VALID,-0.0679233,VALID,20.1526,VALID,5,VALID,0.599657,
2004-08-18, 01:27:00,VALID,919.211,VALID,0,VALID,98.5366,VALID,-0.0849042,VALID,20.1429,VALID,14,VALID,0.625,
2004-08-18, 01:28:01,VALID,919.21,VALID,0,VALID,98.5481,VALID,-0.0509425,VALID,20.1496,VALID,13,VALID,0.46005,
2004-08-18, 01:29:00,VALID,919.208,VALID,0,VALID,98.5862,VALID,-0.0509425,VALID,20.1595,VALID,12,VALID,0.717383,
2004-08-18, 01:30:00,VALID,919.196,VALID,0,VALID,98.6435,VALID,-0.0679233,VALID,20.1558,VALID,11,VALID,0.17748,
2004-08-18, 01:31:00,VALID,919.178,VALID,0,VALID,98.7592,VALID,-0.101885,VALID,20.162,VALID,15,VALID,0.232777,
2004-08-18, 01:32:00,VALID,919.175,VALID,0,VALID,98.8329,VALID,-0.0169808,VALID,20.1945,VALID,15,VALID,0,
2004-08-18, 01:33:00,VALID,919.158,VALID,0,VALID,98.8609,VALID,-0.0509425,VALID,20.2132,VALID,15,VALID,0.0310764,
2004-08-18, 01:34:00,VALID,919.139,VALID,0,VALID,98.8329,VALID,-0.0849042,VALID,20.233,VALID,93,VALID,0.292696,
2004-08-18, 01:35:01,VALID,919.134,VALID,0,VALID,98.8227,VALID,-0.101885,VALID,20.2489,VALID,182,VALID,0.238095,
2004-08-18, 01:36:00,VALID,919.109,VALID,0,VALID,98.838,VALID,-0.0679233,VALID,20.2589,VALID,214,VALID,0.491425,
2004-08-18, 01:37:00,VALID,919.097,VALID,0,VALID,98.8355,VALID,-0.0679233,VALID,20.2686,VALID,230,VALID,0.0845703,
2004-08-18, 01:38:00,VALID,919.069,VALID,0,VALID,98.8494,VALID,-0.101885,VALID,20.278,VALID,230,VALID,0,
2004-08-18, 01:39:01,VALID,919.067,VALID,0,VALID,98.8673,VALID,-0.0339617,VALID,20.3076,VALID,328,VALID,0.59233,
2004-08-18, 01:40:01,VALID,919.033,VALID,0,VALID,98.6918,VALID,-0.0509425,VALID,20.3014,VALID,17,VALID,1.00073,
2004-08-18, 01:41:00,VALID,919.023,VALID,0,VALID,98.6803,VALID,-0.0679233,VALID,20.2912,VALID,19,VALID,1.0853,
2004-08-18, 01:42:00,VALID,919.009,VALID,0,VALID,98.688,VALID,-0.0849042,VALID,20.2981,VALID,10,VALID,1.05176,
2004-08-18, 01:43:00,VALID,919,VALID,0,VALID,98.6816,VALID,-0.0509425,VALID,20.2884,VALID,13,VALID,1.02753,
2004-08-18, 01:44:00,VALID,918.998,VALID,0,VALID,98.7299,VALID,-0.0339617,VALID,20.2847,VALID,17,VALID,0.694957,
2004-08-18, 01:45:01,VALID,918.977,VALID,0,VALID,98.7732,VALID,-0.0679233,VALID,20.2877,VALID,17,VALID,0.60174,
2004-08-18, 01:46:01,VALID,918.967,VALID,0,VALID,98.8164,VALID,-0.0849042,VALID,20.3043,VALID,15,VALID,0.436967,
2004-08-18, 01:47:00,VALID,918.939,VALID,0,VALID,98.7655,VALID,-0.0509425,VALID,20.3038,VALID,335,VALID,0.236049,
2004-08-18, 01:48:01,VALID,918.936,VALID,0,VALID,98.6765,VALID,-0.0509425,VALID,20.2907,VALID,242,VALID,0.139482,
2004-08-18, 01:49:00,VALID,918.915,VALID,0,VALID,98.7515,VALID,-0.0849042,VALID,20.2941,VALID,242,VALID,0.159489,
2004-08-18, 01:50:00,VALID,918.894,VALID,0,VALID,98.7375,VALID,0,VALID,20.3133,VALID,256,VALID,0.129246,
2004-08-18, 01:51:00,VALID,918.927,VALID,0,VALID,98.6727,VALID,-0.0679233,VALID,20.3197,VALID,354,VALID,0.303977,
2004-08-18, 01:52:01,VALID,918.945,VALID,0,VALID,98.6854,VALID,-0.0679233,VALID,20.3399,VALID,354,VALID,0,
2004-08-18, 01:53:00,VALID,918.952,VALID,0,VALID,98.5913,VALID,-0.0509425,VALID,20.3431,VALID,354,VALID,0.222747,
2004-08-18, 01:54:00,VALID,918.929,VALID,0,VALID,98.5239,VALID,-0.0849042,VALID,20.3401,VALID,354,VALID,0.229421,
2004-08-18, 01:55:00,VALID,918.911,VALID,0,VALID,98.5303,VALID,-0.0849042,VALID,20.3334,VALID,322,VALID,0.169829,
2004-08-18, 01:56:00,VALID,918.877,VALID,0,VALID,98.5252,VALID,-0.0679233,VALID,20.3431,VALID,267,VALID,0.332031,
2004-08-18, 01:57:00,VALID,918.867,VALID,0,VALID,98.4743,VALID,-0.0509425,VALID,20.3262,VALID,193,VALID,0.193314,
2004-08-18, 01:58:00,VALID,918.864,VALID,0,VALID,98.5163,VALID,-0.0849042,VALID,20.3068,VALID,187,VALID,0.246003,
2004-08-18, 01:59:00,VALID,918.866,VALID,0,VALID,98.5443,VALID,-0.0339617,VALID,20.3108,VALID,332,VALID,0.598323,
2004-08-18, 02:00:00,VALID,918.856,VALID,0,VALID,98.5939,VALID,-0.0679233,VALID,20.2845,VALID,9,VALID,0.61684,
2004-08-18, 02:01:00,VALID,918.831,VALID,0,VALID,98.6702,VALID,-0.0679233,VALID,20.2912,VALID,15,VALID,0.323742,
2004-08-18, 02:02:01,VALID,918.831,VALID,0,VALID,98.6791,VALID,-0.0679233,VALID,20.3009,VALID,15,VALID,0.259909,
2004-08-18, 02:03:01,VALID,918.8,VALID,0,VALID,98.6574,VALID,-0.0679233,VALID,20.3006,VALID,18,VALID,0.584666,
2004-08-18, 02:04:00,VALID,918.783,VALID,0,VALID,98.6002,VALID,-0.0509425,VALID,20.2941,VALID,13,VALID,0.237891,
2004-08-18, 02:05:00,VALID,918.762,VALID,0,VALID,98.5722,VALID,-0.0509425,VALID,20.3071,VALID,13,VALID,0.157203,
2004-08-18, 02:06:01,VALID,918.741,VALID,0,VALID,98.5303,VALID,-0.0339617,VALID,20.3162,VALID,13,VALID,0.548209,
2004-08-18, 02:07:00,VALID,918.755,VALID,0,VALID,98.4654,VALID,-0.0339617,VALID,20.3133,VALID,14,VALID,0.518111,
2004-08-18, 02:08:00,VALID,918.751,VALID,0,VALID,98.4298,VALID,-0.0339617,VALID,20.3165,VALID,19,VALID,0.362351,
2004-08-18, 02:09:00,VALID,918.756,VALID,0,VALID,98.3586,VALID,-0.0679233,VALID,20.3165,VALID,19,VALID,0.000390625,
2004-08-18, 02:10:00,VALID,918.734,VALID,0,VALID,98.3217,VALID,0,VALID,20.3167,VALID,18,VALID,0.0183503,
2004-08-18, 02:11:01,VALID,918.738,VALID,0,VALID,98.3027,VALID,-0.0509425,VALID,20.3098,VALID,15,VALID,0.210352,
2004-08-18, 02:12:00,VALID,918.721,VALID,0,VALID,98.2327,VALID,-0.0679233,VALID,20.2939,VALID,17,VALID,0.18859,
2004-08-18, 02:13:01,VALID,918.71,VALID,0,VALID,98.2416,VALID,-0.0169808,VALID,20.2618,VALID,187,VALID,0.367188,
2004-08-18, 02:14:01,VALID,918.704,VALID,0,VALID,98.323,VALID,-0.0339617,VALID,20.2494,VALID,187,VALID,0.0513672,
2004-08-18, 02:15:01,VALID,918.682,VALID,0,VALID,98.3853,VALID,-0.0339617,VALID,20.2432,VALID,187,VALID,0,
2004-08-18, 02:16:00,VALID,918.679,VALID,0,VALID,98.4031,VALID,-0.0509425,VALID,20.2228,VALID,187,VALID,0.00053267,
2004-08-18, 02:17:00,VALID,918.661,VALID,0,VALID,98.4438,VALID,-0.0849042,VALID,20.2204,VALID,187,VALID,0.0632622,
2004-08-18, 02:18:00,VALID,918.666,VALID,0,VALID,98.5048,VALID,-0.0509425,VALID,20.2236,VALID,187,VALID,0,
2004-08-18, 02:19:00,VALID,918.654,VALID,0,VALID,98.5595,VALID,-0.0679233,VALID,20.2196,VALID,187,VALID,0,
2004-08-18, 02:20:00,VALID,918.66,VALID,0,VALID,98.6104,VALID,-0.0509425,VALID,20.2228,VALID,187,VALID,0,
2004-08-18, 02:21:01,VALID,918.669,VALID,0,VALID,98.6206,VALID,-0.0849042,VALID,20.24,VALID,187,VALID,0,
2004-08-18, 02:22:00,VALID,918.659,VALID,0,VALID,98.6129,VALID,-0.0339617,VALID,20.2591,VALID,187,VALID,0,
2004-08-18, 02:23:01,VALID,918.636,VALID,0,VALID,98.5862,VALID,-0.0339617,VALID,20.2656,VALID,187,VALID,0,
2004-08-18, 02:24:01,VALID,918.617,VALID,0,VALID,98.5532,VALID,-0.0509425,VALID,20.2584,VALID,187,VALID,0,
2004-08-18, 02:25:00,VALID,918.612,VALID,0,VALID,98.4998,VALID,-0.0339617,VALID,20.2651,VALID,187,VALID,0.514535,
2004-08-18, 02:26:00,VALID,918.585,VALID,0,VALID,98.4451,VALID,0,VALID,20.2651,VALID,187,VALID,0.460756,
2004-08-18, 02:27:01,VALID,918.59,VALID,0,VALID,98.3637,VALID,0,VALID,20.2487,VALID,187,VALID,0.362723,
2004-08-18, 02:28:01,VALID,918.582,VALID,0,VALID,98.3128,VALID,-0.0169808,VALID,20.236,VALID,186,VALID,0.593941,
2004-08-18, 02:29:01,VALID,918.589,VALID,0,VALID,98.3917,VALID,-0.0339617,VALID,20.2268,VALID,337,VALID,0.591797,
2004-08-18, 02:30:00,VALID,918.586,VALID,0,VALID,98.3929,VALID,-0.0339617,VALID,20.2102,VALID,12,VALID,0.453497,
2004-08-18, 02:31:01,VALID,918.6,VALID,0,VALID,98.4133,VALID,-0.0169808,VALID,20.2104,VALID,12,VALID,0.364524,
2004-08-18, 02:32:01,VALID,918.591,VALID,0,VALID,98.3306,VALID,-0.0169808,VALID,20.1905,VALID,12,VALID,0.0565476,
2004-08-18, 02:33:01,VALID,918.591,VALID,0,VALID,98.2938,VALID,0.0169808,VALID,20.1709,VALID,12,VALID,0.604883,
2004-08-18, 02:34:01,VALID,918.588,VALID,0,VALID,98.3217,VALID,-0.0169808,VALID,20.1555,VALID,12,VALID,0.599159,
2004-08-18, 02:35:01,VALID,918.584,VALID,0,VALID,98.3179,VALID,0,VALID,20.1225,VALID,12,VALID,0.664063,
2004-08-18, 02:36:00,VALID,918.597,VALID,0,VALID,98.4146,VALID,-0.0169808,VALID,20.1136,VALID,13,VALID,0.717348,
2004-08-18, 02:37:01,VALID,918.607,VALID,0,VALID,98.5315,VALID,-0.0169808,VALID,20.1006,VALID,14,VALID,0.823219,
2004-08-18, 02:38:01,VALID,918.626,VALID,0,VALID,98.6574,VALID,0,VALID,20.087,VALID,14,VALID,0.820499,
2004-08-18, 02:39:01,VALID,918.626,VALID,0,VALID,98.6994,VALID,0,VALID,20.0904,VALID,6,VALID,0.724466,
2004-08-18, 02:40:01,VALID,918.624,VALID,0,VALID,98.7795,VALID,-0.0339617,VALID,20.084,VALID,12,VALID,0.82049,
2004-08-18, 02:41:01,VALID,918.617,VALID,0,VALID,98.8062,VALID,-0.0169808,VALID,20.0713,VALID,1,VALID,0.938616,
2004-08-18, 02:42:01,VALID,918.604,VALID,0,VALID,98.8762,VALID,-0.0169808,VALID,20.0686,VALID,15,VALID,1.02496,
2004-08-18, 02:43:00,VALID,918.601,VALID,0,VALID,98.9652,VALID,-0.0169808,VALID,20.042,VALID,16,VALID,0.857118,
2004-08-18, 02:44:01,VALID,918.584,VALID,0,VALID,99.0008,VALID,0,VALID,20.0323,VALID,5,VALID,0.732195,
2004-08-18, 02:45:01,VALID,918.576,VALID,0,VALID,99.119,VALID,0,VALID,20.0159,VALID,14,VALID,0.68968,
2004-08-18, 02:46:01,VALID,918.57,VALID,0,VALID,99.1864,VALID,0,VALID,20.0296,VALID,8,VALID,0.800327,
2004-08-18, 02:47:01,VALID,918.553,VALID,0,VALID,99.203,VALID,0,VALID,20,VALID,7,VALID,0.873884,
2004-08-18, 02:48:01,VALID,918.53,VALID,0,VALID,99.2513,VALID,-0.0849042,VALID,19.9774,VALID,358,VALID,1.0407,
2004-08-18, 02:49:01,VALID,918.528,VALID,0,VALID,99.3403,VALID,-0.0509425,VALID,19.9382,VALID,356,VALID,0.747677,
2004-08-18, 02:50:01,VALID,918.5,VALID,0,VALID,99.4675,VALID,-0.0509425,VALID,19.9424,VALID,14,VALID,0.661258,
2004-08-18, 02:51:01,VALID,918.484,VALID,0,VALID,99.5806,VALID,-0.0509425,VALID,19.9489,VALID,13,VALID,0.372266,
2004-08-18, 02:52:01,VALID,918.463,VALID,0,VALID,99.6315,VALID,-0.0509425,VALID,19.9658,VALID,13,VALID,0.00390625,
2004-08-18, 02:53:01,VALID,918.45,VALID,0,VALID,99.615,VALID,-0.0679233,VALID,19.9387,VALID,13,VALID,0.327943,
2004-08-18, 02:54:01,VALID,918.444,VALID,0,VALID,99.5984,VALID,-0.0509425,VALID,19.936,VALID,13,VALID,0.177973,
2004-08-18, 02:55:01,VALID,918.444,VALID,0,VALID,99.5895,VALID,0,VALID,19.9228,VALID,8,VALID,0.308036,
2004-08-18, 02:56:01,VALID,918.453,VALID,0,VALID,99.5704,VALID,-0.0169808,VALID,19.9104,VALID,5,VALID,0.169331,
2004-08-18, 02:57:01,VALID,918.442,VALID,0,VALID,99.5959,VALID,-0.0169808,VALID,19.9133,VALID,5,VALID,0.003125,
2004-08-18, 02:58:01,VALID,918.451,VALID,0,VALID,99.5794,VALID,-0.0509425,VALID,19.8907,VALID,5,VALID,0,
2004-08-18, 02:59:01,VALID,918.447,VALID,0,VALID,99.6264,VALID,-0.0169808,VALID,19.894,VALID,5,VALID,0,
2004-08-18, 03:00:01,VALID,918.448,VALID,0,VALID,99.6582,VALID,-0.0169808,VALID,19.8972,VALID,5,VALID,0.0990854,
2004-08-18, 03:01:01,VALID,918.451,VALID,0,VALID,99.6811,VALID,-0.0339617,VALID,19.9004,VALID,5,VALID,0.271763,
2004-08-18, 03:02:01,VALID,918.439,VALID,0,VALID,99.6633,VALID,-0.0509425,VALID,19.9004,VALID,5,VALID,0.536776,
2004-08-18, 03:03:01,VALID,918.411,VALID,0,VALID,99.5692,VALID,-0.0849042,VALID,19.8848,VALID,5,VALID,0.617914,
2004-08-18, 03:04:01,VALID,918.406,VALID,0,VALID,99.5704,VALID,-0.0339617,VALID,19.8746,VALID,8,VALID,0.465353,
2004-08-18, 03:05:00,VALID,918.409,VALID,0,VALID,99.587,VALID,0,VALID,19.8612,VALID,10,VALID,0.483854,
2004-08-18, 03:06:00,VALID,918.415,VALID,0,VALID,99.5374,VALID,-0.0169808,VALID,19.8647,VALID,11,VALID,0.528392,
2004-08-18, 03:07:00,VALID,918.436,VALID,0,VALID,99.4624,VALID,0,VALID,19.8393,VALID,21,VALID,0.887277,
2004-08-18, 03:08:00,VALID,918.419,VALID,0,VALID,99.4751,VALID,-0.0169808,VALID,19.8162,VALID,14,VALID,0.936756,
2004-08-18, 03:09:00,VALID,918.374,VALID,0,VALID,99.4802,VALID,-0.0339617,VALID,19.8098,VALID,19,VALID,0.936942,
2004-08-18, 03:10:00,VALID,918.338,VALID,0,VALID,99.4535,VALID,-0.0169808,VALID,19.8068,VALID,24,VALID,0.952431,
2004-08-18, 03:11:00,VALID,918.302,VALID,0,VALID,99.4814,VALID,-0.0339617,VALID,19.8068,VALID,15,VALID,0.5242,
2004-08-18, 03:12:00,VALID,918.288,VALID,0,VALID,99.5259,VALID,-0.0339617,VALID,19.817,VALID,15,VALID,0.569922,
2004-08-18, 03:13:00,VALID,918.299,VALID,0,VALID,99.517,VALID,-0.0169808,VALID,19.8234,VALID,15,VALID,0.538881,
2004-08-18, 03:14:00,VALID,918.295,VALID,0,VALID,99.4115,VALID,-0.0339617,VALID,19.8003,VALID,15,VALID,0.332961,
2004-08-18, 03:15:00,VALID,918.301,VALID,0,VALID,99.3581,VALID,-0.0169808,VALID,19.7906,VALID,15,VALID,0.36319,
2004-08-18, 03:16:00,VALID,918.29,VALID,0,VALID,99.2843,VALID,-0.0509425,VALID,19.7745,VALID,20,VALID,0.495833,
2004-08-18, 03:17:00,VALID,918.273,VALID,0,VALID,99.2538,VALID,-0.0169808,VALID,19.742,VALID,30,VALID,0.588986,
2004-08-18, 03:18:00,VALID,918.251,VALID,0,VALID,99.3009,VALID,-0.0339617,VALID,19.7422,VALID,10,VALID,0.671875,
2004-08-18, 03:19:00,VALID,918.248,VALID,0,VALID,99.2869,VALID,-0.0339617,VALID,19.7194,VALID,10,VALID,0.570313,
2004-08-18, 03:20:00,VALID,918.241,VALID,0,VALID,99.3136,VALID,0,VALID,19.729,VALID,10,VALID,0.585366,
2004-08-18, 03:21:00,VALID,918.253,VALID,0,VALID,99.3428,VALID,0,VALID,19.7062,VALID,8,VALID,0.460379,
2004-08-18, 03:22:00,VALID,918.256,VALID,0,VALID,99.3683,VALID,0,VALID,19.7164,VALID,347,VALID,0.59484,
2004-08-18, 03:23:00,VALID,918.271,VALID,0,VALID,99.4001,VALID,0,VALID,19.7,VALID,323,VALID,0.312322,
2004-08-18, 03:24:00,VALID,918.278,VALID,0,VALID,99.456,VALID,-0.0339617,VALID,19.7102,VALID,332,VALID,0.264172,
2004-08-18, 03:25:00,VALID,918.249,VALID,0,VALID,99.4675,VALID,-0.0169808,VALID,19.7104,VALID,337,VALID,0,
2004-08-18, 03:26:00,VALID,918.247,VALID,0,VALID,99.4954,VALID,0,VALID,19.7069,VALID,337,VALID,0,
2004-08-18, 03:27:00,VALID,918.231,VALID,0,VALID,99.5717,VALID,-0.0339617,VALID,19.7236,VALID,337,VALID,0,
2004-08-18, 03:28:00,VALID,918.213,VALID,0,VALID,99.5921,VALID,-0.0169808,VALID,19.7333,VALID,337,VALID,0,
2004-08-18, 03:29:00,VALID,918.216,VALID,0,VALID,99.5768,VALID,-0.0169808,VALID,19.7166,VALID,337,VALID,0.196948,
2004-08-18, 03:30:00,VALID,918.229,VALID,0,VALID,99.4992,VALID,-0.0339617,VALID,19.7072,VALID,337,VALID,0.155895,
2004-08-18, 03:31:00,VALID,918.252,VALID,0,VALID,99.4217,VALID,-0.0509425,VALID,19.6908,VALID,350,VALID,0.567042,
2004-08-18, 03:32:00,VALID,918.268,VALID,0,VALID,99.3797,VALID,-0.101885,VALID,19.6784,VALID,7,VALID,0.565696,
2004-08-18, 03:33:00,VALID,918.256,VALID,0,VALID,99.4115,VALID,-0.0679233,VALID,19.6751,VALID,20,VALID,0.872997,
2004-08-18, 03:34:00,VALID,918.234,VALID,0,VALID,99.4725,VALID,-0.0339617,VALID,19.6816,VALID,1,VALID,1.40645,